Regional Weather Roundup
Issued by NWS

Home | Current Version | Previous Version | Text Only | Print | Product List | Glossary Off
Versions: 1 2 3 4 5 6 7 8 9 10 11 12 13 14 15 16 17 18 19 20 21 22 23 24 25 26 27

000
ASUS45 KTFX 240610
RWRMT
MONTANA REGIONAL WEATHER ROUNDUP
NATIONAL WEATHER SERVICE GREAT FALLS MT
1200 AM MDT TUE OCT 24 2017

NOTE: "FAIR" INDICATES FEW OR NO CLOUDS BELOW 12000 FEET WITH NO
SIGNIFICANT WEATHER AND/OR OBSTRUCTIONS TO VISIBILITY.

MTZ001>007-043-240700-
WEST OF THE DIVIDE

CITY           SKY/WX    TMP DP  RH WIND       PRES   REMARKS
KALISPELL      MOCLDY    33  30  88 CALM      30.70R
MISSOULA       PTCLDY    37  32  82 NE3       30.73R
BUTTE          CLOUDY    30  25  81 N5        30.69R
MULLAN PASS    PTCLDY    33  30  88 S6        30.70S WCI  28
ANACONDA         N/A     30  25  80 S5        30.71S
DEER LODGE       N/A     30  25  80 CALM      30.72S
EUREKA           N/A     37  28  70 MISG      30.68F
HAMILTON         N/A     39  30  70 S7        30.72R
LIBBY            N/A     34  34 100 SW3       30.70S
PLAINS           N/A     36  30  79 CALM      30.67R
$$

MTZ008-052>055-240700-
SOUTHWEST MONTANA

CITY           SKY/WX    TMP DP  RH WIND       PRES   REMARKS
BOZEMAN        CLOUDY    28  23  81 SE7       30.67R WCI  21
DILLON         CLOUDY    33  21  61 SW9       30.67F WCI  25
W YELLOWSTONE  CLOUDY    27  21  80 CALM      30.69S
ENNIS          CLOUDY    36  21  55 SE8       30.71F WCI  29
THREE FORKS      N/A     29  21  71 W3        30.58R
TWIN BRIDGES     N/A     27  17  65 CALM      30.59R
$$

MTZ009-010-012-014-046-048-049-054-240700-
EAST SLOPES AND CENTRAL MONTANA

CITY           SKY/WX    TMP DP  RH WIND       PRES   REMARKS
CUT BANK       PTCLDY    45  26  47 W22G32    30.45F
GREAT FALLS    CLEAR     37  26  64 SW12      30.53S WCI  29
MALMSTROM AFB  CLOUDY    39  28  64 SW14      30.53S WCI  31
HELENA         CLEAR     48  28  46 W8        30.62F
BOWMANS CRNR     N/A     38  26  62 S13       30.53F WCI  30
CHOTEAU          N/A     45  27  49 SW10      30.51F
FAIRFIELD        N/A     38  24  57 SW5       30.51F
POWER            N/A     34  24  65 SW12      30.50F WCI  26
RAYNESFORD       N/A     43  24  47 SW6       30.53F
ULM              N/A     37  26  65 SW5       30.55S
$$

MTZ011-013-016-021-045-047-050-051-240700-
NORTH CENTRAL MONTANA

CITY           SKY/WX    TMP DP  RH WIND       PRES   REMARKS
HAVRE          CLOUDY    33  24  69 SW8       30.48S WCI  26
LEWISTOWN      CLEAR     29  19  66 SE3       30.53F
N BAR RANCH      N/A     30  16  55 CALM      30.55F
CHINOOK          N/A     28  23  80 W5        30.47F
DENTON           N/A     36  23  57 W14       30.49F WCI  27
GEYSER           N/A     42  23  46 W12       30.51F
GRASS RANGE      N/A     36  20  52 SW3       30.49F
STANFORD         N/A     39  22  50 W12       30.52F WCI  32
WINIFRED         N/A     39  20  46 W5        30.51F
$$

MTZ017>020-022>027-061-062-240700-
NORTHEAST MONTANA

CITY           SKY/WX    TMP DP  RH WIND       PRES   REMARKS
GLASGOW        CLEAR     33  23  66 W5        30.46F
JORDAN           N/A     30  22  72 NW8       30.50S WCI  22
SIDNEY         CLEAR     39  26  59 NW12      30.43F WCI  32
WOLF POINT     CLEAR     35  23  61 W6        30.46F WCI  30
MALTA          CLEAR     30  25  80 CALM      30.47F
PLENTYWOOD       N/A     36  27  69 CALM      30.41R
POPLAR           N/A     36  21  55 NW6       30.45F WCI  31
SCOBEY           N/A     32  17  54 NW1       30.38F
$$

MTZ028>42-056>058-240700-
SOUTHCENTRAL AND SOUTHEAST MONTANA

CITY           SKY/WX    TMP DP  RH WIND       PRES   REMARKS
BAKER          CLEAR     34  25  69 W10       30.47S WCI  26
BILLINGS       CLEAR     41  22  46 W7        30.55S
LIVINGSTON     CLEAR     44  21  40 W18       30.59S
MILES CITY     CLEAR     34  25  69 W10       30.51S WCI  26
BIG TIMBER     CLEAR     43  21  42 W22G30    30.56F
EKALAKA          N/A     35  19  52 W5        30.42R
FORSYTH          N/A     39  21  48 CALM      30.52F
HARLOWTON        N/A     38  24  56 NW13      30.54F WCI  30
LAUREL           N/A     37  19  48 CALM      30.56F
$$

REGIONAL REPORTS...DAKOTAS

CITY           SKY/WX    TMP DP  RH WIND       PRES   REMARKS
WILLISTON      CLEAR     38  29  70 W10       30.40F WCI  31
MINOT          CLEAR     39  29  67 W15       30.31F WCI  31
DICKINSON      CLEAR     30  24  78 W8        30.39R WCI  22
BEACH            N/A     37  23  56 NW13      30.47F WCI  29
CROSBY           N/A     37  30  75 W9        30.38F WCI  31
TIOGA            N/A     36  30  80 NW10      30.37F WCI  28
WATFORD CITY     N/A     41  28  60 NW9       30.39F
BISMARCK       CLEAR     43  31  62 NW13G20   30.32S
GRAND FORKS    CLEAR     34  30  85 N14       30.17S WCI  25
FARGO          CLEAR     36  30  79 N18       30.14R WCI  26
BUFFALO SD       N/A     43  24  47 NW25      30.35F
RAPID CITY     CLEAR     45  22  40 NW23      30.44R
$$

REGIONAL REPORTS...WYOMING/IDAHO/WASHINGTON

CITY           SKY/WX    TMP DP  RH WIND       PRES   REMARKS
GILLETTE       CLEAR     34  19  54 W14       30.53F WCI  25
SHERIDAN       CLEAR     36  21  54 CALM      30.56S
BUFFALO WY     CLEAR     40  19  43 N9        30.57R
CODY           CLEAR     31  19  61 CALM      30.59F
YELLOWSTONE LA   N/A     23  20  88 CALM      30.71S
IDAHO FALLS    CLOUDY    39  32  76 SW8       30.69R
SALMON         CLOUDY    33  27  78 NE5       30.74R
BOISE          CLEAR     43  34  70 CALM      30.67S
SPOKANE        CLEAR     42  38  85 E5        30.71R
$$

REGIONAL REPORTS...ALBERTA

CITY           SKY/WX    TMP DP  RH WIND       PRES   REMARKS
EDMONTON       MOCLDY    45  23  42 S6        30.20F
CALGARY        PTCLDY    45  19  36 S3        30.33F
LETHBRIDGE     PTCLDY    50  28  43 W28G35    30.40S
MEDICINE HAT   CLEAR     37  27  65 SW9       30.39F WCI  31
$$

REGIONAL REPORTS...SASKATCHEWAN

CITY           SKY/WX    TMP DP  RH WIND       PRES   REMARKS
SWIFT CURRENT  CLEAR     30  21  69 SW9       30.40F WCI  22
REGINA         CLEAR     28  25  86 W8        30.37R WCI  20
SASKATOON      CLEAR     28  27  93 S6        30.35F WCI  22
$$




USA.gov is the U.S. government's official web portal to all federal, state and local government web resources and services.